Location: ??
(35.4032°N, 139.3073°E)
Time: 08:34:54
(UTC+00:00)

CZ-2C R/B - Visible Passes

Search period start: 24 July 2024 00:00
Search period end: 03 August 2024 00:00
Orbit: 702 x 905 km, 98.2° (Epoch: 23 July)

Date Brightness Start Highest point End Pass type
(mag) Time Alt. Az. Time Alt. Az. Time Alt. Az.
24 Jul 5.4 15:28:10 10° ENE 15:29:09 12° ENE 15:29:09 12° ENE visible
24 Jul 3.3 17:05:55 10° N 17:10:09 50° WNW 17:10:09 50° WNW visible
25 Jul 3.2 16:40:13 10° NNE 16:44:14 63° NNE 16:44:14 63° NNE visible
26 Jul 4.1 16:14:50 10° NNE 16:18:19 38° ENE 16:18:19 38° ENE visible
26 Jul 4.6 17:55:54 10° NNW 17:58:54 17° WNW 17:59:19 17° WNW visible
27 Jul 4.9 15:49:51 10° NE 15:52:23 21° ENE 15:52:23 21° ENE visible
27 Jul 4.0 17:29:24 10° N 17:33:24 30° WNW 17:33:24 30° WNW visible
28 Jul 5.5 15:25:45 10° ENE 15:26:29 12° ENE 15:26:29 12° ENE visible
28 Jul 3.3 17:03:23 10° N 17:07:29 51° NW 17:07:29 51° NW visible
29 Jul 3.4 16:37:43 10° NNE 16:41:34 57° NNE 16:41:34 57° NNE visible
30 Jul 4.2 16:12:21 10° NNE 16:15:38 35° ENE 16:15:38 35° ENE visible
30 Jul 4.6 17:53:16 10° NNW 17:56:29 18° WNW 17:56:39 18° WNW visible
31 Jul 5.0 15:47:23 10° NE 15:49:43 20° ENE 15:49:43 20° ENE visible
31 Jul 4.0 17:26:51 10° N 17:30:43 31° WNW 17:30:43 31° WNW visible
01 Aug 5.6 15:23:20 10° ENE 15:23:47 11° ENE 15:23:47 11° ENE visible
01 Aug 3.5 17:00:52 10° N 17:04:48 50° NW 17:04:48 50° NW visible
02 Aug 3.7 16:35:12 10° NNE 16:38:52 51° NNE 16:38:52 51° NNE visible
02 Aug 5.1 18:18:43 10° WNW 18:19:19 10° WNW 18:19:53 10° WNW visible
